Regional Weather Roundup
Issued by NWS

Home | Current Version | Previous Version | Text Only | Print | Product List | Glossary On
Versions: 1 2 3 4 5 6 7 8 9 10 11 12 13 14 15 16 17 18 19 20 21 22 23 24 25 26 27 28 29 30 31 32 33 34 35 36 37 38 39 40 41 42 43 44 45 46 47 48 49 50
000
ASUS43 KDMX 232207
RWRIA

WEATHER ROUNDUP FOR IOWA
NATIONAL WEATHER SERVICE DES MOINES IA
500 PM CDT TUE SEP 23 2014

NOTE: "FAIR" INDICATES FEW OR NO CLOUDS BELOW 12,000 FEET WITH NO
SIGNIFICANT WEATHER AND/OR OBSTRUCTIONS TO VISIBILITY.

* - THESE STATIONS ARE NOT NWS STATIONS...THUS NOT UNDER NWS
QUALITY CONTROL.  THEY ALSO DO NOT REPORT WEATHER SUCH
AS PRECIPITATION OR FOG.

IAZ001>003-012>014-020>022-031>034-043>046-232300-
   NORTHWEST IOWA

CITY           SKY/WX    TMP DP  RH WIND       PRES   REMARKS
CARROLL *      MOSUNNY   70  54  56 S17G24    30.13F
CHEROKEE *     CLOUDY    63  57  82 SE8       30.11S
DENISON *      CLOUDY    68  55  64 S10G21    30.09S
LE MARS *      CLOUDY    63  55  77 SE8G14    30.07F
ORANGE CITY *  CLOUDY    63  54  72 SE10G23   30.07F
SHELDON *      CLOUDY    63  54  72 SE15G25   30.08S
SIOUX CITY     CLOUDY    65  57  75 SE13G20   30.06F
SPENCER        CLOUDY    62  53  72 SE14      30.12F
STORM LAKE *   CLOUDY    61  59  94 SE10G16   30.12F
$$

IAZ055>058-069>071-079>083-090>094-232300-
   SOUTHWEST IOWA

CITY           SKY/WX    TMP DP  RH WIND       PRES   REMARKS
ATLANTIC *     MOSUNNY   70  55  60 SE12G20   30.12F
AUDUBON *      MOSUNNY   68  52  56 S14G21    30.14F
CLARINDA *     SUNNY     70  55  60 SE6G12    30.15F
COUNCIL BLFS * SUNNY     70  57  64 S16G25    30.09S
CRESTON *      SUNNY     68  55  64 S12G21    30.17S
HARLAN  *      SUNNY     72  54  53 S18G28    30.14F
LAMONI         CLOUDY    68  53  58 SE8       30.17F
RED OAK *      SUNNY     70  55  60 SE12G18   30.11F
SHENANDOAH *   MOSUNNY   68  57  68 S8G17     30.13S
$$

IAZ047>049-059>061-072>074-084-232300-
   CENTRAL IOWA

CITY           SKY/WX    TMP DP  RH WIND       PRES   REMARKS
AMES           CLOUDY    68  52  56 SE9       30.17F
ANKENY *       SUNNY     68  54  60 SE8       30.18S
CHARITON *     SUNNY     70  52  52 S12       30.19R
DES MOINES     CLOUDY    71  53  52 S10       30.17F
GRINNELL*      CLOUDY    70  48  46 SE14      30.20F
KNOXVILLE *    SUNNY     68  50  52 SE8G14    30.18S
MARSHALLTOWN   CLOUDY    70  49  47 SE9       30.18F
PELLA *        PTSUNNY   70  52  52 SE8       30.20F
PERRY *        PTSUNNY   72  52  49 S14G21    30.16F
$$

IAZ004>006-015-016-023>025-035-036-232300-
   NORTH CENTRAL IOWA

CITY           SKY/WX    TMP DP  RH WIND       PRES   REMARKS
ALGONA *       MOSUNNY   63  57  82 S7        30.16S
CLARION *      SUNNY     68  48  49 S14G20    30.17S
ESTHERVILLE    LGT RAIN  60  56  86 S14G24    30.14S
FORT DODGE *   CLOUDY    64  54  68 SE7       30.16F
MASON CITY     CLOUDY    69  49  48 S12       30.18F
FOREST CITY *  MOSUNNY   68  46  45 S12G18    30.16S
IOWA FALLS *     N/A     70  48  46 SE14      30.19F
$$

IAZ007>011-017>019-026>030-037>042-050>054-066-232300-
   NORTHEAST IOWA

CITY           SKY/WX    TMP DP  RH WIND       PRES   REMARKS
CEDAR RAPIDS   PTSUNNY   70  49  47 S9        30.22S
CHARLES CITY * SUNNY     72  46  40 S12G18    30.20S
CLINTON *      SUNNY     73  46  38 S6        30.27S
DECORAH *      SUNNY     72  48  43 S7G16     30.21S
DUBUQUE        MOSUNNY   71  47  42 S10       30.25S
MONTICELLO *   SUNNY     73  46  38 SE7G13    30.23S
OELWEIN *      SUNNY     72  48  43 S12       30.22S
WATERLOO       CLOUDY    70  47  43 S12       30.19F
$$

IAZ064-065-067-068-078-232300-
   EAST CENTRAL IOWA

CITY           SKY/WX    TMP DP  RH WIND       PRES   REMARKS
DAVENPORT      MOSUNNY   73  43  33 S7        30.24F
IOWA CITY      PTSUNNY   70  50  49 S8        30.23F
MT. PLEASANT * CLOUDY    73  46  38 S3        30.23S
MUSCATINE *      N/A     73  45  35 S8        30.22
QUAD CITIES    SUNNY     74  46  36 SE6       30.23F
$$

IAZ062-063-075>077-085>089-095>099-232300-
   SOUTHEAST IOWA

CITY           SKY/WX    TMP DP  RH WIND       PRES   REMARKS
BURLINGTON     PTSUNNY   71  51  49 S6        30.23S
FAIRFIELD *    SUNNY     70  50  49 S8        30.22F
FORT MADISON * SUNNY     75  48  38 CALM      30.24S
KEOKUK *       SUNNY     72  50  46 S5        30.22F
OSKALOOSA *      N/A     72  52  49 S10G17    30.21S
CENTERVILLE *  SUNNY     68  54  60 SE8       30.22F
OTTUMWA        CLOUDY    70  51  51 S10       30.21F
WASHINGTON *   SUNNY     73  50  43 S8G15     30.22F
$$

ABBREVIATIONS USED IN REMARKS
   TC - TEMPERATURES IN CELSIUS
  WCI - WIND CHILL INDEX
   HX - HEAT INDEX
  VSB - VISIBILITY
$$




USA.gov is the U.S. government's official web portal to all federal, state and local government web resources and services.